Wind_Speed
8 8 8 8 8 8 7 7 6 6 7 7 6 5 5 5 6 4 4 4 4 5 5 5 5 5 5 5 5 5 5 6 6 6 6 6 7 7 6 7 7 7 7 8
8 8 8 8 8 8 8 8 7 7 7 7 7 6 6 6 6 5 4 4 5 6 6 6 5 6 6 6 6 6 6 6 6 6 7 7 7 7 7 7 7 8 8 8
8 8 8 8 8 7 7 8 8 8 8 8 8 7 7 6 6 6 5 5 6 6 7 6 6 6 7 7 7 7 7 7 7 7 7 7 6 6 7 7 8 8 9 10
9 8 8 8 7 7 7 7 8 8 8 8 9 9 8 7 7 6 6 7 7 7 7 8 7 7 7 7 8 8 8 8 8 8 8 8 7 7 7 8 9 9 10 10
9 9 9 8 7 7 7 7 9 9 9 9 9 9 8 8 8 7 8 8 8 8 8 9 9 9 8 9 9 9 9 8 9 9 8 8 8 8 8 9 9 10 10 11
9 9 9 8 8 8 9 9 9 10 11 11 10 10 9 8 8 8 8 9 9 9 9 9 10 10 10 10 10 10 10 10 10 9 9 9 9 9 9 10 10 10 11 11
10 10 10 9 10 10 10 10 11 11 11 11 11 12 10 9 9 10 10 10 11 11 10 10 11 12 12 11 11 11 11 11 11 10 10 10 10 10 10 11 11 11 11 11
11 11 11 11 11 11 12 12 13 12 12 12 12 12 11 11 10 11 12 12 12 12 11 11 12 13 13 12 12 12 12 12 12 11 11 11 12 11 11 11 11 12 12 12
12 11 12 12 12 13 13 13 14 14 13 14 13 13 12 12 12 12 13 13 13 13 12 12 13 14 14 14 13 13 14 14 13 13 13 13 13 13 13 13 12 12 12 12
13 13 12 13 14 15 15 15 15 15 16 16 15 15 15 14 14 14 15 14 14 14 14 14 14 15 15 15 15 15 15 15 15 14 14 14 14 14 14 14 14 14 14 14
15 15 14 14 15 15 16 16 17 18 18 17 17 16 15 15 16 16 15 15 16 16 16 16 16 16 16 15 16 17 17 17 16 16 16 16 16 16 16 16 16 15 15 15
16 17 17 16 16 16 16 17 18 19 19 19 19 17 16 17 17 17 17 17 18 18 17 17 17 17 17 17 17 17 18 18 18 19 19 18 18 18 18 17 17 17 17 17
16 17 18 17 17 17 17 17 18 19 20 20 21 19 18 19 18 18 18 19 18 18 18 18 17 18 18 18 19 19 19 20 20 20 20 19 19 19 19 19 19 18 18 18
18 18 19 18 18 18 18 18 19 20 21 22 22 21 20 21 20 19 20 20 20 19 19 19 18 19 19 19 20 21 21 21 21 21 20 20 19 19 19 20 20 20 19 19
19 19 19 19 19 20 19 19 20 21 21 22 22 22 22 23 22 22 21 21 21 21 21 21 20 20 20 20 21 21 21 22 22 21 21 20 20 20 20 20 20 20 20 20
20 21 21 20 20 21 21 20 20 21 22 23 23 23 23 24 24 23 23 23 23 22 22 21 20 21 21 20 20 20 21 21 21 21 21 21 21 21 21 21 21 21 21 21
21 22 22 22 22 22 21 20 21 23 22 23 23 23 23 24 24 24 24 24 24 24 24 24 23 21 21 20 20 20 21 22 22 22 22 22 21 22 22 22 23 23 22 22
23 23 23 22 23 23 21 21 22 23 23 23 23 23 23 23 23 24 24 25 25 25 26 25 24 22 21 20 21 21 21 22 22 23 22 23 23 23 24 24 24 24 24 24
24 24 24 23 23 23 21 21 22 23 23 23 23 24 24 24 24 24 24 25 25 25 25 24 24 23 22 21 21 22 23 23 22 23 23 23 23 24 24 24 24 24 25 25
25 25 25 24 25 24 21 22 23 24 24 23 24 24 24 24 24 24 24 24 24 24 24 23 23 23 23 23 22 22 23 24 23 23 24 24 24 25 25 25 25 25 25 26
25 26 26 26 27 25 23 23 24 24 23 23 24 24 24 24 24 24 24 25 25 25 24 24 24 23 23 24 24 24 23 23 24 24 24 25 25 26 26 25 25 26 27 27
24 25 26 27 27 26 25 24 24 24 24 24 24 24 24 24 24 25 25 25 26 25 25 25 24 24 24 25 25 25 25 24 25 26 26 26 26 27 27 27 27 28 28 28
25 25 26 26 26 26 25 25 25 25 25 25 25 25 25 24 24 25 25 26 27 26 26 26 25 25 26 26 26 26 27 27 27 27 28 28 28 28 28 28 29 29 29 29
25 25 26 26 25 25 25 25 25 25 25 26 25 26 26 25 25 25 26 26 27 28 27 27 27 27 27 27 28 28 28 28 29 29 29 29 29 29 30 30 30 31 31 31
25 25 26 26 26 26 27 26 26 26 26 25 25 26 26 27 26 27 27 28 28 29 29 28 28 28 28 28 28 29 29 30 30 30 30 30 30 31 31 31 31 32 32 33
25 26 28 27 27 28 27 27 27 27 26 26 26 26 27 28 28 28 29 29 29 29 29 29 29 29 29 29 29 29 30 30 31 32 31 30 30 31 32 32 32 33 33 33
Wind_Direction
258 254 254 254 254 255 256 258 254 252 253 259 262 263 266 272 284 287 288 292 292 298 303 304 301 299 298 299 298 294 291 287 284 285 286 284 280 273 269 267 265 262 259 259
257 257 256 253 256 259 262 262 260 254 254 256 265 268 267 269 280 285 288 292 292 292 290 295 294 291 293 298 299 297 295 291 286 289 289 286 282 275 271 266 264 262 259 259
257 253 253 256 262 268 266 263 263 262 259 264 268 269 265 267 277 282 284 292 295 287 285 288 288 285 288 293 294 296 295 293 291 292 289 282 277 275 273 268 265 263 261 263
253 251 252 255 262 265 260 263 267 269 264 264 268 268 264 269 273 279 286 287 291 287 285 286 285 284 288 293 294 293 293 294 292 290 287 280 275 271 271 269 266 263 263 265
256 255 254 255 261 263 262 262 267 270 271 269 266 270 263 267 270 280 289 290 290 289 286 283 283 284 285 287 289 291 291 293 289 285 281 278 275 271 268 268 267 264 264 267
256 253 254 255 257 261 265 264 264 268 267 265 264 267 265 267 272 277 286 292 291 286 285 283 280 282 284 286 287 287 286 287 284 280 277 274 273 270 269 268 268 267 267 266
255 255 255 256 258 260 261 261 263 265 265 263 263 267 272 272 275 277 280 285 287 285 282 280 280 283 285 285 285 283 281 283 280 277 277 275 273 270 270 270 268 268 267 265
256 254 255 257 261 263 261 263 263 264 263 261 265 271 274 278 278 277 280 281 282 281 279 279 279 279 280 281 281 280 279 280 279 277 276 276 275 272 270 272 271 269 266 264
261 258 256 255 259 262 264 263 264 267 269 266 267 271 273 278 278 279 282 281 279 277 276 277 278 277 278 277 277 276 280 278 277 275 274 274 275 272 271 272 271 268 265 266
262 262 259 259 259 260 261 264 262 263 268 267 266 268 271 276 275 277 279 278 277 277 275 275 276 276 275 275 274 273 277 278 275 275 274 273 271 272 271 272 270 268 266 267
263 265 264 262 260 261 262 265 266 267 267 269 268 270 273 274 272 276 277 277 275 274 274 271 273 273 273 274 275 273 274 276 275 274 273 272 271 272 271 270 269 269 269 268
264 266 265 266 265 263 263 263 263 266 267 268 270 273 276 277 276 276 276 278 274 272 268 267 268 270 272 274 274 273 274 274 275 274 274 273 273 272 270 268 269 269 269 268
264 265 267 266 265 265 266 265 265 266 267 269 270 272 274 275 278 276 276 277 278 274 268 265 268 266 269 273 274 273 274 275 275 274 274 273 272 271 268 267 268 269 269 268
264 266 268 269 269 267 266 265 265 266 268 270 272 274 273 273 275 275 277 277 278 277 272 268 268 269 270 271 273 273 274 274 274 273 274 273 271 269 267 267 267 268 269 269
263 266 268 268 266 268 270 269 268 266 269 272 275 275 274 273 273 276 277 275 276 276 274 272 269 270 270 273 274 273 273 273 273 272 271 271 269 268 267 268 268 268 270 270
262 264 267 268 267 267 268 271 272 271 272 274 275 275 274 273 274 275 276 276 276 276 275 274 270 269 271 273 273 273 272 273 272 272 270 269 268 268 268 269 268 269 270 269
263 264 265 266 266 267 268 271 272 272 273 275 275 277 274 273 274 274 274 274 275 274 274 275 275 271 269 270 271 270 271 271 271 271 270 268 267 267 268 269 269 270 269 269
262 264 265 266 266 265 271 270 270 271 273 275 276 276 274 273 273 272 272 273 275 276 276 276 275 270 269 270 269 269 270 272 272 271 271 270 268 268 268 270 270 270 271 271
262 262 264 265 267 269 270 271 271 272 273 274 275 276 275 274 274 274 274 275 276 277 276 276 273 271 268 267 268 270 270 271 272 271 271 271 272 271 270 271 271 271 271 272
264 263 263 265 267 270 273 272 273 274 273 275 276 276 275 274 275 276 276 277 277 277 277 276 273 272 270 267 267 269 271 272 272 272 270 270 271 271 271 270 270 271 271 272
265 263 263 265 267 270 273 273 274 275 275 276 276 276 276 275 275 276 276 276 275 274 275 275 275 273 271 269 269 270 272 271 273 273 272 271 270 271 271 270 270 271 271 271
265 264 262 264 267 270 273 273 274 275 275 276 276 277 277 275 275 276 276 275 274 273 273 274 274 272 271 270 270 271 270 270 272 272 272 272 272 272 271 270 269 269 271 270
264 265 264 266 268 269 272 273 274 274 275 277 277 277 277 277 276 276 275 275 273 273 272 271 273 273 271 270 271 272 271 271 271 272 272 272 272 271 272 270 269 268 270 271
264 266 265 266 267 268 270 271 272 273 274 276 277 278 278 277 276 275 276 275 275 274 273 273 273 274 273 273 272 272 272 273 273 273 273 273 272 271 271 271 271 270 271 272
263 265 266 266 269 269 270 272 273 274 274 275 276 276 276 276 276 276 276 277 276 275 274 275 274 274 274 274 274 273 273 274 274 273 274 274 273 271 271 271 271 272 272 272
263 264 265 266 267 268 271 272 273 274 274 275 276 277 276 276 277 276 277 277 276 275 275 276 276 276 275 276 277 275 274 273 273 274 275 276 275 274 273 272 272 272 272 272
Height
5851 5852 5852 5852 5851 5851 5851 5850 5850 5850 5850 5850 5850 5850 5850 5850 5849 5849 5849 5848 5848 5848 5847 5847 5846 5846 5845 5845 5844 5844 5843 5843 5842 5842 5841 5841 5840 5840 5840 5839 5839 5839 5839 5839
5850 5850 5850 5849 5848 5848 5847 5847 5847 5848 5847 5847 5847 5848 5848 5848 5847 5847 5847 5847 5846 5846 5846 5845 5844 5844 5843 5843 5842 5842 5841 5841 5840 5840 5839 5839 5838 5838 5837 5837 5837 5837 5837 5837
5847 5848 5847 5846 5846 5845 5845 5845 5845 5845 5845 5845 5845 5845 5846 5845 5845 5845 5845 5844 5844 5844 5843 5843 5842 5842 5841 5841 5840 5840 5839 5839 5838 5838 5837 5837 5836 5836 5835 5835 5835 5834 5834 5834
5844 5844 5844 5844 5843 5843 5842 5842 5842 5842 5843 5843 5843 5843 5843 5843 5843 5843 5842 5842 5841 5841 5841 5841 5840 5839 5839 5839 5838 5837 5837 5836 5835 5835 5834 5834 5834 5834 5833 5833 5832 5832 5832 5831
5842 5842 5841 5841 5841 5840 5840 5840 5840 5840 5840 5840 5840 5840 5841 5840 5840 5840 5839 5839 5839 5838 5838 5838 5837 5837 5836 5836 5835 5835 5834 5834 5833 5832 5832 5832 5831 5831 5830 5830 5830 5830 5829 5829
5839 5839 5839 5839 5838 5838 5838 5838 5838 5837 5837 5837 5837 5837 5838 5838 5837 5837 5836 5836 5836 5835 5835 5834 5834 5833 5833 5833 5833 5832 5831 5831 5830 5830 5829 5829 5828 5828 5827 5827 5827 5826 5826 5826
5836 5836 5836 5836 5835 5835 5835 5836 5836 5835 5834 5834 5834 5834 5835 5834 5833 5833 5832 5832 5832 5832 5831 5831 5831 5830 5830 5830 5830 5829 5828 5828 5827 5827 5826 5826 5825 5825 5824 5824 5823 5823 5823 5822
5832 5833 5833 5832 5832 5832 5832 5833 5833 5832 5831 5831 5831 5830 5831 5830 5829 5829 5829 5829 5828 5828 5828 5828 5828 5827 5827 5827 5826 5826 5825 5825 5824 5823 5823 5822 5822 5821 5821 5820 5820 5820 5819 5819
5829 5830 5829 5829 5828 5829 5828 5828 5828 5828 5827 5827 5827 5827 5827 5826 5826 5825 5825 5825 5825 5824 5824 5824 5824 5824 5823 5823 5823 5822 5821 5821 5820 5820 5819 5818 5818 5817 5817 5817 5816 5816 5816 5815
5824 5825 5826 5825 5825 5824 5824 5824 5824 5824 5823 5823 5823 5822 5823 5822 5821 5821 5821 5820 5820 5820 5820 5819 5819 5819 5819 5819 5818 5818 5817 5817 5816 5816 5815 5814 5814 5813 5813 5813 5812 5812 5811 5811
5820 5820 5821 5821 5821 5820 5820 5820 5819 5819 5819 5819 5818 5820 5818 5818 5817 5817 5816 5816 5816 5815 5815 5815 5814 5814 5814 5814 5813 5813 5812 5812 5811 5811 5810 5810 5809 5809 5808 5808 5807 5807 5807 5806
5815 5815 5815 5816 5816 5815 5815 5815 5815 5815 5814 5813 5813 5817 5813 5813 5812 5812 5812 5811 5810 5810 5809 5809 5809 5809 5808 5808 5808 5807 5807 5806 5806 5806 5805 5804 5804 5804 5803 5803 5802 5802 5802 5801
5810 5811 5811 5811 5812 5811 5810 5809 5809 5809 5809 5808 5808 5811 5808 5808 5807 5807 5806 5806 5805 5804 5804 5804 5803 5803 5802 5802 5802 5801 5801 5801 5800 5800 5799 5799 5798 5798 5797 5797 5797 5797 5796 5796
5805 5805 5806 5807 5806 5805 5805 5805 5804 5804 5803 5803 5803 5803 5803 5802 5802 5802 5801 5800 5799 5799 5798 5798 5798 5797 5796 5796 5795 5795 5795 5794 5794 5793 5793 5793 5792 5792 5791 5791 5791 5791 5790 5790
5799 5800 5799 5800 5800 5799 5799 5799 5799 5798 5798 5797 5797 5797 5797 5796 5796 5795 5795 5794 5794 5793 5792 5791 5791 5791 5790 5789 5788 5788 5788 5788 5787 5787 5786 5786 5786 5786 5786 5785 5785 5785 5784 5784
5794 5794 5794 5794 5794 5793 5793 5793 5793 5792 5792 5791 5791 5791 5790 5790 5789 5789 5789 5788 5787 5787 5786 5785 5784 5784 5783 5783 5782 5782 5781 5781 5781 5781 5780 5780 5780 5780 5780 5779 5779 5778 5778 5777
5788 5788 5788 5788 5787 5787 5787 5788 5787 5786 5785 5785 5784 5785 5783 5783 5783 5783 5782 5782 5781 5780 5779 5779 5778 5777 5776 5776 5775 5775 5775 5775 5774 5774 5774 5773 5773 5773 5773 5773 5772 5772 5771 5771
5781 5781 5781 5781 5782 5781 5784 5781 5780 5779 5779 5778 5777 5777 5776 5776 5776 5775 5775 5774 5774 5773 5772 5771 5770 5770 5769 5769 5768 5768 5768 5768 5768 5767 5767 5767 5766 5766 5766 5765 5765 5764 5764 5763
5774 5774 5774 5774 5773 5774 5776 5775 5773 5772 5772 5771 5771 5770 5769 5769 5768 5768 5767 5767 5766 5765 5764 5764 5763 5763 5762 5762 5762 5762 5761 5761 5761 5760 5760 5760 5759 5759 5758 5758 5757 5756 5756 5756
5767 5767 5767 5767 5766 5767 5770 5768 5766 5766 5765 5765 5764 5763 5762 5761 5761 5761 5760 5759 5759 5758 5757 5757 5756 5755 5755 5755 5755 5755 5754 5754 5754 5753 5753 5752 5751 5751 5750 5750 5749 5749 5748 5748
5759 5759 5759 5759 5758 5759 5761 5760 5759 5759 5759 5758 5756 5755 5755 5754 5754 5753 5752 5751 5751 5750 5750 5749 5748 5748 5747 5747 5747 5747 5747 5747 5746 5746 5745 5744 5743 5743 5742 5742 5741 5741 5740 5740
5752 5752 5752 5751 5751 5754 5752 5752 5752 5751 5750 5749 5748 5748 5747 5746 5745 5745 5744 5743 5743 5742 5742 5742 5741 5740 5740 5740 5739 5739 5739 5739 5738 5738 5737 5736 5735 5734 5734 5733 5732 5732 5732 5731
5744 5745 5744 5744 5746 5745 5744 5744 5743 5743 5742 5741 5741 5740 5739 5738 5737 5737 5736 5735 5735 5734 5734 5733 5733 5733 5732 5731 5731 5730 5730 5730 5730 5729 5728 5727 5726 5726 5725 5724 5723 5723 5722 5722
5736 5736 5736 5736 5736 5736 5736 5735 5734 5734 5734 5733 5732 5732 5731 5730 5729 5728 5728 5727 5726 5726 5725 5725 5724 5724 5723 5722 5722 5721 5721 5720 5720 5720 5719 5718 5717 5716 5716 5715 5714 5713 5712 5712
5729 5728 5727 5727 5728 5727 5727 5726 5726 5726 5725 5725 5724 5723 5722 5722 5721 5720 5719 5718 5718 5717 5716 5716 5715 5715 5714 5713 5712 5711 5711 5711 5710 5710 5709 5708 5707 5706 5705 5704 5703 5703 5702 5701
5720 5720 5719 5720 5720 5719 5719 5718 5718 5717 5717 5716 5715 5715 5714 5713 5712 5711 5710 5709 5708 5708 5707 5707 5706 5706 5705 5704 5703 5702 5701 5700 5700 5699 5698 5697 5696 5695 5694 5694 5693 5692 5691 5691